RH
102 102 107 107 100 100 101 104 100 85 78 75 67 52 40 34 32 31 31 28 24 25 26 24 24 25 22 21 22 23 25 25 24 24 24 22 21 21 25 25 26 27 23 21 19 30 42 48 57 73 89 96 99 93 99 87 59 54 62 78 70 58 64 77 91 92 97 96 96 98 94 96 101 104 100 100 103 101 102 102 101 98 84 62 52 53 61 70 70 63 60 61 56 53 51 45 38
99 102 103 106 101 100 101 101 93 78 66 52 36 33 36 38 41 36 28 26 25 30 39 39 26 24 24 20 21 23 26 27 25 26 25 24 23 24 27 25 28 27 22 20 18 46 69 77 86 90 92 90 97 92 95 97 81 72 63 71 72 63 65 75 80 79 89 91 96 93 89 97 102 105 96 99 104 100 101 104 99 97 94 71 56 55 60 71 72 70 70 64 56 54 47 35 28
89 101 97 97 99 99 103 101 93 84 74 57 36 40 50 46 42 31 23 21 28 41 49 48 30 24 24 20 22 24 26 28 27 28 27 25 24 24 26 26 29 25 21 16 23 70 95 101 97 78 73 77 93 87 86 96 88 80 69 69 70 61 58 78 94 90 88 83 89 86 81 92 102 105 98 99 102 101 100 103 99 92 99 79 55 55 60 68 72 76 72 61 56 48 34 26 27
71 93 97 91 89 91 100 101 94 90 80 67 52 58 64 52 39 29 31 28 34 50 44 35 27 25 25 22 23 24 27 28 29 29 29 27 25 24 25 28 27 25 21 13 38 92 106 105 91 63 57 61 69 70 79 86 79 76 69 76 80 70 62 76 92 96 95 76 73 84 87 88 94 104 103 97 95 100 95 101 100 90 103 79 51 56 58 61 67 70 63 55 47 34 28 32 38
52 74 95 95 86 83 91 94 90 90 81 68 57 62 68 54 41 36 50 52 43 47 42 34 29 27 28 26 23 25 28 28 30 30 30 29 27 25 26 29 26 25 19 23 64 103 105 103 90 71 72 72 68 68 75 77 79 82 81 85 84 75 70 77 77 78 87 70 58 70 84 83 78 90 103 99 95 102 99 102 98 94 103 69 47 56 52 52 55 55 52 43 33 30 39 46 48
41 55 83 98 94 84 82 85 85 85 74 65 59 62 69 58 46 48 65 79 72 63 61 48 33 28 30 29 25 26 28 28 29 29 31 30 28 27 29 30 27 26 20 41 87 104 101 96 84 79 91 92 86 87 87 86 91 93 91 84 79 75 68 72 69 64 68 60 53 56 77 80 61 68 92 101 99 100 96 93 93 102 95 54 46 55 48 46 46 46 39 29 31 45 55 54 51
36 42 64 89 97 87 75 74 79 82 68 57 60 58 62 57 49 58 72 90 92 82 82 71 44 30 31 30 26 27 28 29 29 28 30 29 29 28 33 33 26 27 21 44 91 99 84 76 75 85 100 101 94 98 98 94 94 98 95 76 75 82 66 60 62 58 50 48 51 51 73 76 59 71 90 100 100 91 84 85 94 103 77 44 50 54 46 45 42 34 25 30 47 60 60 55 57
32 33 44 67 89 89 74 66 70 76 68 56 55 49 48 53 50 56 67 80 83 72 77 83 63 41 36 32 27 29 29 30 30 27 27 29 28 31 43 41 26 28 21 29 76 88 58 55 74 86 94 100 100 102 105 97 87 92 99 81 75 83 73 65 71 74 56 47 50 49 68 65 61 90 100 99 101 88 79 81 81 75 54 45 55 51 46 44 32 23 28 44 57 63 64 65 70
28 30 32 44 69 88 80 67 69 73 73 67 61 47 42 52 50 50 56 62 64 57 62 73 69 56 45 37 30 30 31 31 31 27 27 28 27 36 53 53 31 27 26 21 56 72 41 46 74 79 79 88 91 88 98 104 92 88 99 94 83 85 83 72 73 84 69 55 61 62 66 56 52 77 89 96 97 80 69 68 58 47 44 52 57 50 48 37 22 27 40 49 59 71 76 77 79
24 27 29 31 46 75 85 75 72 74 72 67 63 51 46 51 45 48 59 62 60 61 69 72 79 75 56 43 36 33 35 33 30 28 29 27 29 40 52 59 40 24 28 20 37 54 37 49 67 65 67 77 82 79 89 105 103 95 100 101 94 92 88 76 68 82 84 72 72 66 60 49 40 58 87 102 93 74 65 61 48 41 50 59 56 50 44 26 24 38 42 49 66 77 76 79 82
19 23 26 28 31 49 75 83 77 72 66 59 57 51 47 44 42 58 70 69 68 74 86 90 97 89 63 49 44 38 37 36 32 28 29 30 32 38 48 57 39 22 27 19 24 36 35 50 55 52 60 71 87 94 97 104 103 99 102 102 101 99 94 87 76 87 97 88 82 74 58 42 41 68 99 105 86 73 68 60 46 47 59 61 57 50 34 22 34 42 40 57 70 71 73 81 86
14 18 21 25 27 30 48 74 79 68 60 56 54 50 43 40 50 69 70 68 70 72 85 97 101 90 73 61 53 46 40 39 35 28 29 31 30 34 52 54 29 23 27 18 23 26 27 44 46 51 65 74 87 95 101 106 98 90 96 103 101 100 101 100 93 95 98 96 90 75 57 49 71 96 105 102 84 74 68 57 48 53 62 60 56 44 25 27 44 42 44 66 71 73 81 86 86
13 14 16 19 23 25 29 51 71 69 58 51 54 55 46 43 59 71 74 84 79 67 78 92 95 90 85 73 61 54 44 42 37 30 27 28 28 29 49 46 21 23 24 16 21 22 29 47 51 60 69 67 70 78 95 107 95 79 84 101 103 99 101 101 101 100 98 102 88 70 74 84 101 98 91 98 83 70 67 57 49 53 61 58 50 33 23 38 52 47 55 72 75 82 88 84 82
13 12 14 15 17 22 24 32 52 69 64 48 49 60 53 45 61 70 70 82 79 68 78 93 96 91 84 74 68 61 51 47 41 34 27 25 27 25 35 34 21 20 17 13 19 25 38 55 66 72 62 53 61 72 94 107 93 72 69 87 104 104 101 100 101 100 100 103 82 62 76 86 83 67 70 91 83 70 72 62 50 54 61 54 40 26 28 46 58 62 70 77 82 91 93 88 86
12 13 13 13 14 16 20 22 33 57 69 58 51 61 59 49 61 72 69 78 88 85 86 96 101 94 83 73 72 69 62 58 50 39 30 26 25 24 25 27 28 23 14 12 19 29 44 65 78 75 53 51 72 79 96 106 86 70 64 75 98 104 103 102 101 100 100 102 89 66 65 74 75 76 85 94 82 72 79 69 52 59 62 49 33 27 37 52 69 80 83 86 90 96 99 99 94
10 12 12 12 13 12 15 17 21 36 56 65 64 68 62 51 59 71 74 82 96 95 91 97 100 100 89 75 72 71 70 68 59 45 35 31 25 24 23 27 40 32 17 13 18 28 47 73 77 65 52 62 81 79 94 99 77 71 70 72 86 93 95 97 96 99 100 100 99 85 81 91 96 98 94 85 73 73 82 67 57 67 59 43 32 32 46 59 77 90 91 93 97 100 102 101 90
10 10 11 11 13 12 12 14 16 21 32 43 56 76 70 53 54 63 72 82 96 100 97 100 100 102 91 75 68 63 69 72 61 50 43 38 30 30 29 36 51 40 21 16 18 26 54 76 63 59 65 73 83 79 91 86 65 72 79 82 88 90 89 89 93 101 104 100 97 85 83 98 103 93 76 68 67 74 78 64 68 71 52 41 33 41 61 71 84 91 92 96 100 102 101 97 82
10 10 10 10 11 12 12 12 13 14 19 21 36 75 81 54 47 57 72 85 99 104 99 99 101 102 89 78 68 55 67 75 62 55 52 47 41 42 41 47 58 45 27 20 19 27 59 74 52 61 73 73 84 86 88 74 54 63 77 89 95 98 98 95 93 96 102 101 90 72 77 101 101 79 61 60 68 77 74 69 79 66 49 42 32 53 83 90 92 89 88 93 98 99 101 96 77
9 10 9 10 10 11 12 12 13 12 14 16 24 64 86 63 47 63 86 97 101 99 96 101 102 99 89 83 74 61 68 73 64 60 57 54 52 52 51 56 61 50 34 26 20 27 61 72 50 59 64 62 86 92 84 67 45 49 65 75 80 91 103 105 94 87 91 93 80 67 83 102 91 69 56 59 71 79 74 76 81 61 51 42 31 62 96 101 94 87 82 84 94 99 101 88 73
8 9 9 10 10 10 11 10 13 12 12 13 14 42 80 77 54 62 87 100 103 92 86 99 100 92 91 90 82 70 68 70 66 63 59 58 58 57 58 62 64 54 43 35 22 28 62 72 53 53 54 60 89 95 81 61 40 41 58 64 59 65 84 101 98 89 91 86 73 75 92 93 80 66 56 61 70 74 74 80 78 60 53 39 33 66 97 102 93 84 75 76 95 103 94 78 76
7 7 8 8 9 9 10 10 11 12 12 13 11 19 58 86 70 60 72 82 92 85 79 94 95 89 93 88 78 70 69 71 68 65 61 59 59 60 62 65 65 58 52 48 27 29 65 71 53 49 54 70 91 94 81 60 38 37 54 62 52 45 56 78 89 90 98 94 80 82 89 86 82 69 58 64 67 72 82 85 74 58 50 35 38 71 96 102 93 82 74 80 100 102 88 80 84
6 6 7 7 8 9 9 10 9 11 11 12 13 9 30 72 82 72 73 73 76 77 80 90 86 84 92 78 61 60 69 75 69 68 62 58 57 56 63 65 66 63 59 57 32 30 65 67 50 49 61 83 89 89 84 61 39 34 49 63 59 51 44 50 63 71 83 90 85 83 85 91 91 70 60 64 67 82 93 88 68 51 44 33 47 77 96 103 92 81 79 91 105 98 83 83 89
6 6 6 6 7 8 8 9 9 10 11 10 13 11 12 39 65 70 73 79 81 81 84 89 82 81 91 79 56 51 68 77 68 68 63 57 56 54 63 65 67 66 62 64 39 33 65 61 44 48 69 92 86 83 86 64 41 35 44 61 66 67 61 49 48 51 58 68 73 81 85 86 77 61 62 66 74 91 95 82 56 43 38 34 59 82 95 104 90 81 83 93 100 87 74 83 93
6 5 5 6 6 7 7 8 9 9 10 10 10 13 11 14 33 42 47 60 77 89 90 89 86 89 97 86 60 47 64 76 67 66 63 61 60 59 66 66 66 64 65 70 45 39 65 59 41 46 72 95 83 78 86 65 42 35 41 59 68 73 79 74 68 64 68 74 75 75 72 67 66 70 71 68 80 94 92 71 44 38 34 38 69 83 93 99 86 84 85 88 90 76 72 86 93
6 6 5 5 6 6 7 7 8 8 8 10 9 10 12 10 14 20 23 27 43 69 87 92 93 100 104 87 57 40 53 70 68 62 61 66 67 67 70 68 65 60 69 72 50 51 69 61 44 46 70 89 80 76 83 64 40 36 40 57 72 76 80 83 89 91 84 80 74 70 74 81 89 90 76 68 83 93 82 55 37 36 31 47 76 82 91 94 87 90 86 85 83 73 74 84 84
6 6 6 5 6 5 6 6 6 8 7 8 10 9 10 11 11 12 14 15 16 31 57 76 85 99 103 84 54 34 41 59 65 57 58 71 74 74 72 67 61 58 72 71 56 65 69 61 51 49 65 79 78 76 80 62 34 33 40 53 72 84 87 81 87 99 94 87 83 84 93 98 94 86 77 79 86 82 63 43 38 33 32 57 77 80 90 94 93 92 84 82 78 73 76 78 72
7 7 6 5 6 5 5 6 6 7 8 7 8 9 9 10 11 11 11 13 13 12 23 39 59 85 97 88 58 31 32 49 59 51 57 77 82 81 73 66 60 58 74 67 60 74 68 58 52 51 58 68 78 76 78 62 29 28 37 50 69 85 96 92 89 96 98 98 95 93 91 87 85 86 89 86 74 59 47 42 38 29 38 64 74 77 86 93 95 87 79 77 76 76 74 71 62
7 7 7 6 6 6 5 5 6 6 6 7 7 8 9 9 9 11 11 11 13 12 12 16 36 65 85 87 55 24 29 44 51 46 53 74 85 85 72 66 61 58 71 62 62 77 66 54 49 51 53 60 76 75 76 59 26 25 31 42 64 82 99 102 98 98 100 101 97 95 94 94 95 93 85 69 54 45 43 43 34 29 47 67 70 73 78 86 86 79 74 71 76 75 66 64 58
8 7 7 7 6 7 6 5 6 6 6 6 7 7 8 9 9 9 10 11 11 12 12 12 22 39 60 66 36 19 33 41 44 43 44 54 72 83 72 68 63 58 67 59 60 73 64 52 45 48 51 59 73 74 77 56 25 26 26 30 47 65 89 103 103 100 101 102 100 103 102 98 90 75 62 52 48 44 43 40 29 33 55 68 69 69 72 78 80 77 71 68 71 64 58 58 58
7 8 7 7 7 7 7 7 6 6 6 6 6 7 7 8 8 9 9 10 11 11 12 12 13 18 34 40 20 19 35 39 39 40 37 35 52 74 73 71 64 57 64 56 54 64 60 53 46 46 51 62 73 73 76 56 28 28 27 25 32 41 61 84 98 100 101 101 102 105 93 77 66 57 53 51 48 43 41 35 28 41 62 70 69 67 71 75 78 75 67 64 61 53 55 54 61
7 8 8 7 8 8 7 7 7 6 6 6 6 6 7 7 8 8 9 9 10 11 11 12 12 12 18 21 13 19 33 35 35 38 36 26 37 63 74 75 64 57 63 56 50 54 57 55 47 47 54 66 73 73 76 59 35 33 32 28 27 30 37 50 67 83 95 99 96 88 70 57 54 56 58 54 47 41 37 30 31 50 68 71 68 66 69 72 76 73 64 57 50 49 54 53 68
8 7 8 8 8 8 8 8 7 7 6 6 7 6 6 6 7 8 8 9 9 10 11 11 12 11 12 14 12 17 25 27 28 37 38 25 28 56 77 77 65 58 60 58 52 50 56 56 49 51 59 70 73 71 76 66 47 42 40 34 28 28 31 34 42 54 67 73 71 64 59 60 62 64 62 55 46 38 34 29 36 58 71 71 67 64 66 71 75 70 60 49 46 52 54 54 71
8 7 7 7 8 7 8 8 7 8 7 7 7 6 7 6 7 7 7 8 9 9 10 10 11 11 12 12 12 13 16 18 23 34 38 27 25 53 81 78 65 61 60 63 58 51 57 56 51 54 63 73 73 71 75 72 60 51 47 39 28 26 28 32 37 41 47 53 58 60 61 62 62 63 58 51 43 36 34 31 40 60 69 67 64 62 64 71 73 65 54 46 50 56 52 55 70
9 8 8 7 7 7 7 8 8 8 8 8 7 7 7 6 7 7 7 8 8 9 10 10 11 10 11 11 13 12 11 15 22 31 35 30 27 50 81 78 66 64 61 68 63 52 58 58 53 55 64 74 71 70 74 74 66 56 56 46 28 25 26 29 35 40 46 53 61 68 69 66 62 59 51 47 41 36 35 31 42 59 63 62 61 59 63 69 69 60 51 47 55 57 49 54 69
13 11 10 8 8 7 7 8 8 8 8 8 8 8 7 7 7 6 7 7 7 9 8 10 11 11 11 10 12 12 10 13 22 32 34 33 30 47 78 79 69 67 62 71 68 53 57 60 57 56 61 68 68 70 73 74 68 58 65 54 27 23 24 25 30 34 40 48 57 66 73 74 69 61 49 44 39 35 35 32 41 54 56 60 59 59 62 65 63 56 49 49 56 53 45 52 68
15 14 13 11 9 8 8 7 7 8 8 8 8 8 8 8 7 7 7 7 7 8 8 9 10 10 12 11 12 11 10 12 20 31 35 36 31 41 77 82 70 67 62 71 70 54 55 59 60 58 58 62 66 71 70 70 66 58 68 56 26 22 22 21 24 25 29 33 40 47 58 68 69 62 48 40 38 34 33 30 38 48 52 57 57 58 60 60 63 60 53 53 53 48 43 53 74
15 15 15 13 12 10 9 8 7 8 7 8 8 8 9 8 8 7 7 7 7 7 8 8 9 10 11 11 12 12 11 13 16 24 29 36 29 35 75 86 72 68 61 69 72 57 52 54 60 61 57 59 65 71 68 66 62 58 68 55 26 22 21 20 21 20 22 23 26 30 37 50 55 52 40 34 34 32 30 30 35 42 46 54 56 55 59 61 64 60 53 53 51 45 45 61 84
16 16 15 15 14 12 11 9 8 8 7 8 8 8 9 8 9 8 8 8 7 8 7 7 8 9 10 11 12 12 15 16 13 16 23 31 26 30 72 89 74 69 61 63 72 63 50 47 58 65 59 57 62 69 65 61 59 58 68 55 26 22 21 19 20 19 21 21 23 25 27 35 37 35 31 29 30 29 29 29 32 38 44 51 51 50 57 61 62 59 56 58 52 45 50 69 86
17 17 16 16 15 14 14 11 10 9 8 8 8 8 9 9 10 9 9 8 8 8 7 8 8 8 10 10 12 13 22 29 19 12 19 28 24 26 65 87 73 70 63 57 67 68 50 41 54 64 61 58 59 65 63 58 56 56 68 56 26 22 22 20 21 19 21 21 21 22 21 23 24 24 25 25 26 26 26 27 29 34 38 41 43 48 57 61 66 67 64 64 56 48 58 72 80
18 18 18 17 17 16 16 14 12 10 9 9 9 9 9 9 10 10 10 9 9 9 8 9 8 8 10 9 11 12 21 36 27 15 18 24 21 21 55 82 72 70 65 52 62 71 50 36 50 62 64 62 58 61 62 59 54 53 67 60 29 22 24 20 22 20 21 22 21 22 20 18 19 21 24 23 24 24 23 25 25 27 32 37 44 51 59 67 72 70 66 65 58 53 63 71 73
18 18 19 18 17 17 17 16 14 13 11 11 10 10 10 10 10 10 10 10 10 9 9 9 8 9 10 8 12 10 14 30 32 21 16 20 18 18 50 75 67 71 69 49 58 74 56 35 43 55 62 67 61 59 62 61 55 50 63 66 37 22 25 21 21 21 20 21 21 20 20 19 19 19 21 21 20 22 21 23 26 30 37 44 52 60 67 72 69 63 62 60 55 56 63 68 67
17 18 19 19 18 18 18 18 17 17 14 13 12 11 11 11 11 10 11 11 10 10 9 9 9 9 10 9 10 10 13 31 45 33 15 16 15 14 47 69 63 75 73 46 52 74 66 43 38 42 53 70 68 60 63 61 58 52 57 70 51 24 23 23 20 21 20 20 20 20 19 18 20 20 21 24 24 27 30 34 39 44 51 56 61 64 63 61 56 54 57 50 49 58 61 62 64
18 18 18 19 20 20 20 20 20 20 16 14 13 13 13 13 12 11 11 11 10 11 11 10 10 8 10 10 9 12 10 23 54 53 30 25 20 21 53 69 65 81 78 47 42 65 76 58 36 27 39 69 75 63 65 62 57 55 51 66 65 34 21 24 22 20 20 21 19 21 22 21 24 27 28 33 36 40 43 48 53 56 62 64 62 60 55 48 45 46 47 44 49 59 59 60 63
20 18 17 17 18 18 20 19 19 20 18 16 14 14 15 14 14 12 11 12 11 11 12 12 14 14 15 13 10 12 12 28 59 64 51 46 38 42 66 75 73 84 84 59 39 51 78 69 40 26 32 62 78 66 67 65 55 56 52 59 71 52 25 21 24 22 18 22 22 22 25 26 28 32 35 39 41 45 48 52 60 64 66 66 65 68 71 66 58 50 45 47 56 59 55 58 63
22 21 19 18 18 17 18 18 18 19 18 19 18 16 15 14 14 14 14 14 13 12 13 13 16 21 29 32 23 14 25 57 76 70 67 66 57 60 80 89 85 82 82 73 53 47 71 79 56 38 31 48 75 71 68 70 57 54 55 55 67 67 43 21 21 25 21 19 23 25 27 29 31 33 36 40 41 44 50 57 64 67 66 70 74 78 82 83 80 74 63 59 65 61 52 55 62
29 27 24 22 20 18 19 20 19 19 18 19 20 18 16 15 14 16 17 18 17 16 15 15 16 20 30 44 46 34 35 61 76 74 80 80 64 58 73 84 78 73 73 77 73 53 61 81 62 47 46 43 64 77 73 74 63 55 62 60 61 70 62 36 19 22 25 22 22 24 27 29 31 35 37 40 44 46 52 60 63 69 78 85 87 84 81 83 86 88 86 78 73 64 54 55 61
35 34 31 27 23 21 21 21 21 21 19 19 20 20 19 17 16 16 18 21 23 23 20 19 20 22 28 39 54 60 56 57 60 66 82 88 68 44 50 60 52 53 56 65 77 56 57 82 58 55 79 58 53 79 81 77 69 60 66 68 64 67 70 60 36 20 21 24 23 22 24 27 28 34 38 40 44 47 51 56 61 77 95 97 94 89 81 79 81 86 93 92 84 71 62 59 61
42 41 38 34 30 27 23 22 21 20 20 19 20 22 22 22 21 19 18 20 24 29 28 27 26 29 36 41 50 64 73 77 75 79 89 95 84 61 56 58 45 39 36 41 55 43 55 85 64 67 96 65 48 75 85 83 75 65 68 71 72 70 69 73 63 37 20 20 26 25 23 27 29 31 36 39 42 47 49 50 60 83 97 89 86 90 86 81 81 85 92 97 93 82 70 63 63
50 50 47 42 38 33 27 23 21 20 21 21 20 22 23 24 24 23 23 23 23 28 32 33 34 36 42 46 50 56 66 76 84 94 102 101 98 91 83 75 59 45 35 34 37 35 62 91 72 69 84 62 50 67 82 87 78 69 73 70 68 71 70 75 79 65 39 19 18 25 26 26 30 31 33 37 40 45 48 47 54 74 82 72 71 84 90 87 81 81 85 90 91 88 81 74 74
55 56 54 49 44 39 32 26 21 19 21 22 21 21 22 24 23 23 25 27 26 27 31 35 39 46 52 53 53 53 56 65 74 87 101 104 103 103 96 86 72 58 50 44 38 46 79 96 76 66 74 71 63 60 69 84 81 74 75 70 64 67 68 67 75 84 74 44 18 16 24 26 30 33 31 34 40 43 45 44 46 57 66 62 60 72 83 83 77 74 75 79 84 91 92 89 86
58 60 58 55 51 44 37 30 24 21 22 24 24 22 22 23 23 23 23 25 28 30 32 35 41 54 67 73 72 67 62 63 71 80 91 96 95 95 92 80 72 68 60 53 56 74 95 95 80 72 74 78 74 62 58 69 81 81 78 73 63 67 78 74 70 78 84 73 41 17 19 24 27 33 31 31 41 45 42 41 40 45 54 55 53 61 70 71 70 68 68 71 78 86 88 88 88
59 62 60 60 58 48 39 33 28 25 23 24 24 24 24 24 25 26 24 24 25 28 32 35 39 49 64 76 83 83 76 70 73 80 85 85 82 86 88 77 71 72 62 59 74 91 94 85 79 75 72 70 73 74 61 56 72 83 84 80 64 73 99 93 72 69 77 86 70 34 19 23 27 31 32 34 44 49 43 40 39 39 47 52 50 52 58 62 63 63 64 64 68 77 79 77 80
58 62 60 60 59 50 42 37 35 31 27 24 24 25 28 28 26 27 27 26 24 24 29 35 41 48 56 66 74 80 82 77 75 79 83 81 76 80 84 73 67 66 64 74 91 95 90 83 77 74 70 64 68 82 75 57 60 72 82 84 68 70 89 82 64 61 67 81 87 61 26 19 28 31 33 41 49 51 45 43 44 43 45 48 48 48 50 54 56 57 60 62 64 71 74 72 72
54 60 59 58 59 54 48 45 42 37 31 29 27 25 28 29 28 27 26 27 27 24 26 31 42 53 64 76 83 88 90 88 84 83 83 80 72 69 70 61 54 55 66 89 105 102 91 79 71 69 69 65 67 84 89 72 60 62 74 83 74 64 66 66 60 55 60 71 85 82 45 17 26 35 37 49 56 53 50 49 50 50 48 45 46 50 51 52 53 52 54 60 66 71 72 72 71
49 56 57 59 62 59 55 54 50 43 35 33 32 28 25 26 28 30 28 26 28 27 25 25 34 51 72 91 98 97 98 98 96 92 91 88 78 69 66 59 50 55 78 99 102 94 81 68 65 66 67 66 68 82 95 89 73 65 70 79 81 71 54 54 65 75 86 82 78 88 67 26 22 35 43 54 58 57 57 58 58 57 53 48 50 56 58 56 54 52 50 52 60 65 65 64 65
47 52 55 59 63 61 61 63 60 53 42 36 35 30 25 25 26 26 27 27 27 29 27 24 25 36 61 90 103 101 99 101 101 100 100 99 93 84 79 74 66 68 80 80 70 70 73 72 74 71 68 67 68 77 89 93 86 74 71 76 84 80 58 53 78 99 100 80 68 85 83 43 20 30 49 58 57 60 65 65 68 72 68 59 56 59 61 61 60 59 55 50 50 52 51 51 54
48 50 53 59 61 60 65 72 72 67 56 45 39 35 30 29 28 24 23 26 30 31 30 26 24 25 38 66 92 103 104 102 101 101 102 101 101 99 94 91 87 83 77 63 55 66 81 91 93 82 71 69 71 76 76 77 76 66 67 75 79 81 70 64 88 107 93 66 63 86 93 66 31 22 45 62 59 63 74 74 74 81 83 76 68 65 63 62 64 66 64 57 51 47 45 45 47
51 52 53 57 60 61 68 79 87 86 71 55 48 47 44 39 35 31 26 25 29 33 33 31 28 25 24 36 60 84 99 103 103 101 101 100 101 102 101 99 98 95 91 85 84 90 96 103 104 88 76 76 79 74 61 56 51 44 58 76 76 76 75 75 95 109 86 56 60 86 99 90 58 26 33 60 66 66 76 83 83 85 88 85 78 73 67 62 61 62 63 59 54 50 47 45 43
Wind_Speed
4 4 4 5 6 7 8 10 11 12 12 12 12 11 10 9 8 6 5 4 3 2 0 0 1 2 4 4 5 7 9 10 11 10 11 13 14 16 17 18 19 20 21 22 22 21 20 20 19 15 8 4 4 5 4 5 6 3 4 2 3 4 6 12 13 11 10 11 12 13 14 14 15 15 16 17 15 16 16 17 19 16 19 23 23 24 24 24 23 23 25 25 26 26 26 26 25
3 3 3 5 6 7 8 10 11 12 12 12 12 11 9 8 8 6 4 3 2 1 1 1 2 3 5 6 6 7 8 10 10 9 11 13 14 15 16 18 18 20 21 22 22 19 20 20 19 16 9 2 1 4 4 4 3 3 5 4 3 5 8 11 12 10 9 10 11 12 13 13 14 14 15 15 12 14 17 18 19 15 18 25 24 24 25 24 23 24 25 26 27 27 27 25 21
4 4 5 5 7 7 8 10 11 11 11 12 12 11 8 8 8 5 4 3 3 2 1 1 3 4 6 8 8 7 7 9 9 9 11 14 15 15 16 18 18 19 20 22 21 17 20 20 17 17 14 9 4 4 5 5 4 4 6 6 7 7 9 11 12 10 10 11 10 11 12 12 13 13 13 12 11 14 16 19 20 18 20 25 25 24 25 24 23 24 25 26 27 27 25 19 13
6 5 6 6 7 8 8 10 11 11 11 11 11 9 7 8 7 4 4 4 3 3 1 1 3 5 8 10 9 8 7 8 9 9 12 14 16 15 17 18 18 19 21 23 18 16 20 18 16 16 16 15 8 5 6 7 6 4 5 6 8 8 10 12 13 12 11 11 10 11 10 11 13 13 11 10 12 12 13 16 17 19 21 26 27 25 24 23 24 24 25 26 26 23 17 11 8
9 8 7 8 8 9 8 9 10 11 10 10 9 8 7 8 6 6 4 3 3 2 2 2 3 5 8 11 10 9 8 8 9 10 12 15 15 15 17 18 18 19 22 22 15 15 20 18 16 15 16 17 10 6 5 6 5 5 5 5 7 9 11 13 14 14 12 11 12 11 10 12 12 11 10 10 12 9 9 12 15 18 20 26 27 24 23 23 24 24 25 25 21 14 10 8 7
12 10 9 9 10 10 10 10 11 11 11 10 9 8 8 8 7 6 4 4 3 2 3 3 4 5 8 11 11 10 9 8 9 10 12 15 15 15 16 18 18 19 22 21 16 16 19 17 16 17 17 17 13 8 5 3 6 8 8 8 10 11 12 13 15 15 12 11 11 10 9 11 11 10 11 12 10 9 9 12 16 17 18 26 26 23 23 23 23 24 23 19 13 9 7 6 7
14 13 12 11 12 13 12 12 12 12 12 11 10 10 10 9 8 7 6 5 5 3 3 4 5 7 8 11 11 10 10 9 10 11 12 14 14 15 16 17 18 19 22 21 18 18 20 18 18 19 18 18 15 11 8 5 6 10 11 11 13 14 14 15 16 15 14 11 10 11 10 11 12 11 13 13 11 11 12 13 14 12 20 25 22 22 23 23 24 23 18 12 9 7 5 5 7
17 16 15 13 12 15 15 14 14 14 13 12 11 11 11 11 9 8 7 7 6 5 5 6 8 10 9 11 11 10 11 10 11 11 12 14 14 15 15 16 18 19 21 22 18 17 20 19 19 20 20 20 17 14 13 12 10 11 14 15 16 16 16 16 15 14 14 12 9 12 13 12 13 12 12 14 12 12 11 11 12 15 21 22 19 22 22 23 23 17 10 8 7 5 5 6 7
20 18 17 16 14 16 17 17 16 16 15 13 13 13 12 13 11 9 8 8 8 7 8 9 12 13 11 12 12 10 11 11 12 12 11 13 14 14 14 16 18 19 20 22 17 14 18 19 17 17 20 20 17 17 17 17 14 13 15 17 17 18 18 17 16 15 15 12 10 12 13 13 11 11 12 13 14 14 12 13 15 18 20 18 19 21 22 23 18 10 7 6 5 6 7 8 8
22 21 20 18 17 17 18 19 18 18 17 15 15 15 14 14 13 9 9 9 8 7 8 10 13 15 13 13 12 10 11 12 13 13 12 13 14 14 14 15 17 19 20 21 17 13 18 18 16 17 20 20 18 18 17 18 17 14 14 17 18 19 19 17 15 16 17 14 12 13 12 11 10 12 17 18 16 15 14 14 16 17 17 17 19 20 22 20 10 6 6 5 7 9 9 9 9
23 23 23 21 20 19 19 20 20 19 19 17 16 16 15 15 14 12 11 11 10 8 9 10 13 14 13 12 11 11 11 12 13 13 13 13 13 14 15 14 17 20 20 22 18 15 17 17 18 20 20 21 22 21 20 21 18 16 14 17 19 18 16 14 14 17 18 14 13 14 12 9 12 17 20 18 15 13 13 14 15 15 15 17 18 20 21 13 5 5 5 8 11 10 10 9 9
25 25 24 24 23 22 21 21 22 21 21 19 17 18 18 16 14 14 14 13 11 9 10 11 12 13 13 12 11 11 11 12 12 13 14 13 12 14 15 15 18 20 20 22 20 18 18 17 20 21 20 22 24 24 24 24 19 16 15 16 19 17 14 13 15 18 18 16 15 14 11 11 17 19 18 15 13 12 12 13 14 13 14 17 18 20 16 6 3 4 8 11 11 10 9 9 9
26 26 26 25 25 24 23 23 23 23 23 22 19 19 20 19 17 15 14 13 12 11 10 11 12 13 13 13 11 10 11 12 12 13 14 13 13 13 14 16 19 19 19 22 21 20 20 20 21 20 20 22 24 26 28 27 20 15 15 16 19 18 17 15 16 18 18 18 17 13 11 14 17 16 16 16 12 11 12 12 13 12 14 16 18 17 9 2 4 6 10 11 11 9 9 9 9
28 28 27 27 27 26 26 25 25 24 24 23 21 21 22 22 20 16 15 15 14 12 10 11 13 13 13 12 11 10 11 12 12 13 13 13 13 13 13 15 18 19 20 23 22 21 21 21 21 19 20 24 27 29 31 30 22 14 14 15 18 20 20 20 20 21 19 19 18 14 14 16 17 17 21 19 12 11 11 12 12 11 13 14 16 13 3 3 5 8 11 11 10 9 10 10 9
31 30 30 29 28 28 28 28 27 26 25 24 22 22 23 24 22 18 16 15 14 12 11 13 14 14 14 13 11 10 11 11 12 13 13 13 12 12 12 13 18 20 22 24 23 21 21 21 20 19 22 26 29 31 32 31 24 14 11 14 16 20 22 24 26 25 22 21 19 16 16 18 20 21 20 14 10 11 11 12 11 10 11 13 14 7 1 4 7 10 11 10 10 11 11 9 7
33 33 32 31 30 29 29 29 29 29 28 27 25 24 25 26 25 21 18 15 13 11 11 13 14 15 16 15 13 12 12 12 12 13 13 13 12 11 11 13 17 19 22 24 24 22 21 20 19 21 25 28 30 32 33 31 25 16 10 11 14 18 21 24 27 27 26 23 19 18 18 18 19 18 13 10 10 11 11 12 9 9 11 13 11 1 4 6 9 10 10 10 11 12 10 9 6
37 36 35 34 32 31 31 30 30 31 31 30 29 27 28 29 28 25 20 17 15 13 13 15 16 17 17 16 14 13 13 12 13 13 12 12 11 11 11 13 16 18 21 23 24 23 21 19 19 23 27 28 31 32 33 30 25 18 11 10 12 16 19 22 24 26 27 24 21 20 18 18 19 15 10 10 11 10 11 10 7 8 11 12 6 4 6 8 9 9 10 11 12 10 9 9 5
40 39 37 36 35 34 33 32 32 32 32 33 31 29 30 31 30 27 24 22 19 16 16 18 19 18 17 16 15 14 13 13 13 12 11 11 11 11 11 13 16 18 20 23 23 23 21 18 20 25 27 29 32 33 33 29 24 19 14 10 10 13 16 19 20 23 25 23 21 20 19 20 18 12 10 10 10 10 10 8 6 9 10 10 2 7 7 8 9 9 11 12 11 9 9 7 6
43 41 40 39 38 36 35 34 34 33 34 34 33 31 32 33 33 30 27 26 24 21 19 20 20 20 18 17 16 15 14 14 14 12 11 11 11 11 11 13 16 17 20 23 23 22 20 18 21 24 26 29 32 33 34 28 23 19 14 11 10 11 14 17 19 20 21 22 22 21 20 20 17 12 10 11 10 9 8 6 6 9 9 7 4 9 8 9 9 9 11 11 9 8 8 6 7
45 44 43 42 41 39 38 37 36 36 35 35 34 33 33 34 35 33 31 30 28 26 23 21 21 21 19 18 17 16 16 15 15 14 12 12 12 12 12 14 16 16 19 22 22 22 20 19 21 23 26 30 32 33 34 28 22 19 14 12 10 9 11 15 18 19 20 21 21 21 21 19 16 13 12 11 10 8 7 6 8 9 8 5 7 11 9 11 10 11 12 11 9 8 7 6 8
47 47 46 45 44 42 41 39 39 38 38 37 36 35 34 34 35 35 34 33 31 29 27 25 24 22 20 19 19 18 18 17 16 15 14 13 13 13 13 15 16 16 19 22 22 21 20 19 21 23 26 30 32 34 34 28 22 19 14 12 9 7 7 11 15 18 20 21 22 22 21 18 16 14 13 11 10 7 7 7 9 9 6 3 10 13 11 11 11 12 12 11 8 7 7 7 9
48 48 48 47 47 45 44 42 41 40 40 40 39 38 36 35 34 34 35 35 34 32 30 29 28 25 22 20 20 20 19 18 17 17 16 15 14 14 14 15 16 15 18 22 22 21 19 19 20 23 27 31 32 34 35 29 23 19 14 13 11 7 5 7 11 15 19 21 23 22 21 19 16 14 12 11 9 6 7 9 10 8 4 5 13 15 12 11 11 12 12 11 8 6 7 8 9
48 49 49 49 49 48 47 45 44 43 42 42 42 40 39 38 37 35 34 35 35 34 33 32 31 28 24 23 22 21 20 19 18 17 17 16 15 14 14 15 16 15 17 21 22 20 19 19 20 23 27 31 33 34 35 30 25 20 15 13 12 10 7 5 7 10 14 16 17 17 16 14 13 11 10 10 7 6 9 11 10 6 4 9 16 15 12 12 12 12 11 11 7 6 6 7 9
47 48 49 50 50 50 49 48 47 46 45 45 44 43 42 40 40 39 37 37 37 36 35 34 32 29 27 25 24 23 21 20 19 18 17 17 16 14 15 15 16 16 16 20 22 20 18 17 20 24 27 31 33 34 35 31 26 22 16 13 12 12 10 7 5 6 8 9 8 8 8 7 7 8 9 8 5 7 10 11 8 4 6 14 18 15 13 13 13 12 11 9 6 5 5 6 7
47 47 48 49 50 50 50 50 49 49 48 47 47 46 45 43 42 41 39 39 39 38 37 35 34 31 28 26 25 24 23 22 20 19 18 18 16 14 15 15 16 16 16 19 21 19 17 16 20 25 27 30 33 34 35 32 28 24 17 12 11 11 11 10 7 3 3 4 4 5 6 6 7 8 9 7 5 9 11 9 7 5 10 18 19 15 14 13 13 11 11 8 4 4 4 4 7
46 47 48 48 49 50 50 51 51 51 51 50 50 48 47 46 45 43 41 41 41 40 39 37 35 34 31 28 26 25 24 24 22 20 19 18 16 14 15 16 17 17 16 18 19 18 17 16 20 25 26 29 32 33 34 32 28 25 19 13 10 10 9 9 8 5 1 2 3 4 5 7 9 9 7 6 7 9 9 7 6 7 16 21 19 16 14 13 11 11 10 7 4 3 3 4 9
46 46 47 48 49 49 49 50 51 52 53 53 52 51 50 48 47 45 44 43 42 41 40 38 37 36 34 32 29 28 27 26 24 22 19 18 17 15 15 16 18 17 16 17 17 17 17 16 20 24 25 28 31 32 33 31 28 26 21 15 10 9 8 7 7 6 3 0 2 3 5 7 7 7 6 6 7 7 6 7 6 12 20 22 19 16 14 13 11 11 10 7 4 3 3 6 12
46 46 47 47 48 49 49 50 50 52 53 54 54 53 52 50 49 47 46 45 44 43 41 39 38 37 36 35 33 31 29 27 25 23 20 18 17 16 16 17 18 17 15 15 15 16 18 17 19 22 25 27 30 31 32 30 28 26 23 18 12 8 8 7 6 6 5 4 2 2 4 4 4 5 5 5 5 4 5 6 8 17 23 22 18 16 14 13 12 11 9 7 5 3 4 9 12
45 46 46 47 48 48 49 49 50 51 52 53 54 54 54 53 52 50 48 47 46 45 43 41 40 39 38 36 34 32 30 28 26 24 22 20 19 18 18 17 17 16 15 14 13 16 18 17 18 21 24 27 29 30 31 29 27 26 24 21 15 10 7 6 6 6 6 5 3 1 1 2 3 4 4 3 2 3 6 7 12 21 25 21 18 15 15 14 12 11 9 6 4 4 6 9 10
44 45 46 47 47 48 49 49 50 51 51 52 53 54 54 54 53 52 50 49 48 47 45 44 43 41 40 39 36 33 30 28 26 26 25 22 21 20 19 17 17 16 14 12 12 15 18 18 18 21 23 25 27 29 29 27 27 26 24 22 19 14 9 6 4 4 4 3 2 2 3 3 3 3 2 3 3 5 8 9 16 24 25 21 17 15 15 14 12 10 8 5 4 5 7 8 9
43 44 45 46 47 48 49 49 50 50 51 52 52 53 54 54 54 54 52 51 50 48 47 46 45 44 42 41 38 35 32 29 28 27 26 24 22 22 20 18 16 15 14 12 12 15 17 17 18 20 22 24 26 27 27 26 26 26 25 23 20 17 12 8 5 3 3 2 3 4 4 2 1 3 4 4 5 8 10 13 21 26 24 20 17 16 15 13 11 9 6 4 4 6 6 6 9
41 43 44 46 47 48 48 49 49 50 50 51 52 52 53 53 54 54 54 53 52 50 49 48 47 45 44 42 40 38 35 32 30 28 27 25 24 23 21 18 15 14 14 12 13 15 16 16 18 20 21 22 24 25 25 25 26 26 26 24 21 18 14 11 9 6 4 2 3 3 2 2 3 4 5 6 8 11 13 17 24 27 24 19 17 16 15 13 10 8 5 3 6 6 5 6 9
37 39 42 44 45 47 48 48 49 49 50 51 51 51 52 52 52 53 54 54 53 52 50 49 48 47 45 43 42 40 38 35 32 30 28 26 25 23 21 18 15 14 13 12 13 14 14 15 16 18 19 21 22 24 24 24 25 26 25 25 23 19 15 12 10 8 6 5 5 5 5 5 5 6 7 9 12 14 15 20 26 27 23 19 17 16 15 12 9 7 4 4 7 6 4 7 9
30 33 36 39 42 45 46 47 48 49 49 50 51 51 51 51 52 52 53 53 53 53 52 50 49 48 46 44 43 42 39 36 34 31 29 27 25 23 21 18 16 15 13 11 12 13 13 14 15 17 18 19 21 22 23 23 24 26 25 25 24 20 16 13 11 10 8 7 6 6 6 6 7 7 8 11 14 16 17 22 27 26 23 19 18 17 15 11 8 6 4 6 7 6 5 7 8
24 27 30 33 36 39 42 44 46 48 49 50 50 50 50 51 51 51 52 52 53 53 52 51 50 49 47 46 44 43 41 37 34 31 29 27 26 23 21 19 16 15 13 11 11 12 12 12 13 15 17 18 18 20 22 22 23 25 24 24 24 21 17 14 12 11 9 7 6 5 5 6 7 8 9 12 16 18 19 23 27 26 22 19 18 18 15 11 7 4 4 6 6 5 6 8 9
21 23 25 27 30 33 35 39 42 45 47 48 49 49 49 50 50 51 51 51 52 52 52 51 50 49 48 46 45 43 42 39 35 32 30 29 26 24 22 20 18 17 14 12 11 11 12 12 12 14 15 16 16 18 20 20 21 24 24 24 24 21 18 16 14 12 10 9 7 5 5 6 7 8 10 14 17 19 20 24 26 25 21 19 19 18 14 10 6 4 4 6 6 6 8 9 12
19 20 21 24 26 28 30 34 38 41 44 46 47 48 48 48 49 50 50 50 50 50 50 51 50 50 48 47 45 44 42 40 38 35 33 31 28 25 24 22 19 18 16 13 12 11 12 13 12 13 13 14 14 15 19 19 19 22 23 23 23 21 19 17 15 14 12 11 9 7 7 8 9 10 12 15 18 19 21 24 25 24 20 19 19 17 13 9 6 4 4 6 6 8 10 13 15
17 18 19 20 22 24 26 29 32 36 39 42 45 46 47 47 47 48 49 49 49 49 49 49 49 49 49 48 46 45 43 42 40 38 35 33 30 27 26 24 21 19 18 15 12 11 12 13 11 12 12 12 12 13 16 17 17 20 22 22 22 21 19 18 16 15 14 13 11 11 10 11 12 13 14 16 18 20 22 24 25 23 20 19 18 15 12 9 6 4 5 7 9 11 14 16 16
15 16 16 18 19 20 22 24 25 29 32 37 41 43 44 45 45 45 46 47 48 48 48 47 48 48 48 48 47 46 44 42 41 40 37 34 32 29 27 26 23 21 19 16 13 12 13 13 12 11 10 10 11 12 14 15 15 18 20 21 21 20 19 18 17 17 17 16 15 14 14 15 16 17 17 18 19 20 22 24 23 22 20 18 16 14 12 8 5 4 5 8 11 13 16 17 17
14 14 15 16 17 17 19 20 21 24 27 30 35 39 40 41 43 43 44 45 46 46 46 46 46 47 47 47 47 47 45 41 40 40 38 35 33 30 29 28 25 22 20 17 14 13 13 13 12 11 9 9 10 11 12 13 13 15 18 19 19 19 19 19 19 19 20 21 20 19 18 19 20 20 21 21 21 21 22 23 22 20 19 17 16 14 11 8 6 5 8 11 14 16 18 18 19
12 12 13 14 15 15 16 17 18 20 22 25 29 33 36 38 40 41 42 42 43 44 45 45 45 45 45 46 47 46 45 41 39 39 38 36 34 31 30 29 26 22 20 18 16 14 14 14 12 10 9 8 9 10 11 12 11 12 15 18 17 17 18 19 20 21 22 23 23 23 23 23 23 24 23 23 23 22 22 22 21 20 19 17 15 13 10 8 7 9 12 14 16 19 19 19 20
11 10 11 12 12 13 14 14 15 16 19 21 24 27 30 34 37 39 40 40 41 41 42 43 43 44 44 45 45 44 43 40 37 37 37 36 35 33 31 29 25 23 22 19 17 16 15 14 13 10 8 8 9 9 9 10 10 9 12 15 16 15 16 17 19 20 21 23 24 25 25 26 26 26 26 26 26 25 24 23 21 19 17 14 12 11 10 9 11 13 14 16 19 21 20 19 20
12 10 9 9 9 10 11 13 14 16 17 19 21 23 25 29 33 36 38 38 38 39 40 41 41 42 42 43 43 43 43 41 37 35 35 35 34 33 31 28 26 25 24 21 18 18 16 15 14 11 8 8 9 9 8 9 9 8 9 12 14 13 14 15 17 18 20 22 23 24 25 26 26 27 27 27 27 25 24 21 19 16 15 14 14 14 15 15 16 16 17 20 22 22 21 19 19
13 11 9 8 8 8 9 10 12 13 15 16 17 20 22 25 29 33 35 36 36 37 38 38 38 39 40 41 42 42 42 41 39 35 34 33 33 33 31 29 28 27 26 23 20 19 18 16 15 12 7 7 9 9 8 7 7 6 7 9 11 12 11 12 15 16 17 19 21 22 22 23 24 24 24 24 23 22 20 18 16 16 17 18 18 18 19 19 19 20 21 22 23 22 20 19 18
13 12 11 11 11 10 9 9 10 10 11 12 14 17 20 23 26 28 31 33 34 35 36 37 37 37 37 38 39 41 41 40 39 36 34 33 32 33 33 31 31 30 28 26 23 21 20 18 17 14 9 7 9 9 8 6 6 5 5 7 8 10 10 9 11 13 14 16 18 19 19 19 19 20 20 19 19 18 17 17 17 18 18 18 18 17 17 18 20 21 21 22 22 21 19 18 17
14 14 14 14 13 13 12 12 12 11 11 11 12 15 18 21 22 24 27 30 31 33 34 35 36 37 37 37 38 39 41 41 39 37 35 33 33 33 34 35 34 33 31 29 26 23 22 20 19 15 11 9 8 9 8 6 5 4 4 5 6 7 9 8 8 9 11 13 15 16 16 15 15 15 15 15 16 17 17 18 18 18 18 17 17 16 15 16 18 19 20 20 20 19 18 16 16
15 15 15 15 14 14 14 15 14 14 12 11 11 13 16 18 20 22 25 27 29 30 32 33 34 35 37 38 38 39 40 41 40 38 36 34 34 35 36 37 38 36 34 32 29 26 24 23 19 15 14 12 9 8 8 6 4 3 3 3 4 5 7 7 7 6 7 8 10 12 14 14 13 12 12 13 14 16 18 19 19 20 20 19 18 18 17 17 17 18 19 19 19 17 16 15 15
15 15 15 16 16 15 15 14 14 14 12 11 10 11 13 15 18 20 22 25 27 29 30 31 32 33 34 36 37 38 38 39 38 37 35 31 31 35 37 38 38 38 36 34 32 29 26 25 21 18 18 15 10 9 9 7 5 3 2 1 2 4 5 6 6 5 4 5 7 8 10 12 12 11 11 11 13 15 17 19 20 21 21 20 18 18 19 18 18 18 20 20 19 17 15 14 14
14 14 15 16 16 16 15 14 12 12 11 10 9 10 12 13 16 18 20 23 25 27 28 29 30 30 31 33 34 36 37 38 37 36 35 31 29 30 33 35 34 33 32 32 32 31 28 27 26 23 21 17 12 11 11 9 6 5 3 2 1 1 3 3 4 4 3 3 5 7 8 10 12 12 12 11 12 15 17 19 20 21 21 19 18 18 19 19 19 19 19 20 19 17 15 13 14
11 12 14 14 15 16 16 15 11 9 9 10 10 10 11 13 15 16 18 20 23 25 27 28 28 28 29 30 31 33 35 37 38 36 35 35 34 33 33 33 32 30 29 29 29 31 30 29 29 27 23 19 15 14 14 12 9 7 5 4 3 1 3 4 3 2 1 0 2 5 7 9 12 13 13 12 13 15 17 18 20 21 21 19 18 18 18 18 17 18 18 18 17 15 14 12 13
10 11 13 13 13 15 16 15 12 10 10 9 10 10 11 13 14 15 16 18 20 23 25 27 28 28 28 29 29 31 33 35 37 37 35 36 38 39 38 37 34 31 30 29 29 31 32 30 30 30 27 24 20 17 16 16 13 10 8 6 4 1 3 6 6 5 2 2 2 3 5 8 12 14 15 14 15 17 18 18 19 21 21 19 18 18 18 17 16 15 15 15 15 14 13 11 12
11 11 12 12 13 14 15 15 13 12 11 9 9 9 10 12 13 14 14 16 18 21 24 26 28 29 29 29 29 29 31 34 36 37 36 36 38 40 41 39 36 34 31 30 30 31 32 31 30 31 29 27 24 20 19 19 17 14 11 9 6 5 6 8 8 8 5 4 5 4 4 7 11 14 16 16 17 19 19 18 20 20 20 18 17 17 18 17 15 14 14 14 14 14 12 11 11
13 13 13 12 12 14 14 14 14 13 13 11 9 7 8 10 12 14 14 15 17 20 23 26 28 29 29 28 29 29 30 33 35 36 36 36 38 40 41 40 37 35 34 33 33 33 32 31 31 31 30 28 26 24 22 21 20 17 14 12 10 10 10 8 7 8 7 6 6 7 7 8 10 14 17 19 21 21 20 19 19 19 18 17 17 17 18 17 16 14 13 13 13 13 12 10 10
14 15 15 14 14 14 14 14 14 14 13 12 10 7 6 8 11 13 14 15 16 19 23 27 29 30 30 29 29 29 30 31 34 35 36 36 37 39 40 39 38 37 36 36 36 35 34 33 33 33 32 30 29 27 26 24 22 20 17 15 14 13 11 8 6 7 10 11 10 10 10 10 11 14 17 21 23 23 21 19 18 18 17 16 16 16 17 17 16 14 14 13 13 13 12 10 9
16 16 17 17 16 15 14 14 14 15 13 11 10 9 7 6 8 11 14 15 16 18 22 26 29 30 31 31 30 30 30 31 32 33 34 35 37 38 39 38 37 37 38 39 39 37 36 36 35 34 33 32 31 30 29 28 25 22 20 18 16 15 13 9 7 9 13 16 16 14 13 12 12 14 17 22 25 25 22 20 18 17 17 17 16 17 17 16 15 14 13 14 14 13 12 10 10
20 18 18 19 18 16 14 14 15 16 16 12 11 10 8 6 6 8 11 13 15 18 21 24 27 30 32 33 33 33 32 32 32 32 33 35 36 37 38 38 38 38 40 41 40 39 38 37 36 36 35 34 32 32 32 30 27 25 23 21 18 17 16 14 12 14 18 21 20 17 16 15 15 16 18 23 27 26 24 22 19 18 17 17 17 17 18 17 16 14 13 13 14 14 13 11 11
23 20 19 20 20 17 14 13 15 17 17 15 12 11 10 9 8 7 7 10 14 17 20 22 25 28 32 34 35 36 35 34 33 33 33 34 36 37 38 39 39 40 40 40 40 39 39 39 37 37 36 35 33 32 32 31 28 26 24 22 19 19 20 19 16 18 21 24 22 18 17 17 17 17 19 24 28 28 26 24 22 20 19 19 19 19 19 19 18 16 15 14 14 14 14 13 12
26 24 21 21 20 18 13 11 13 16 18 16 12 10 11 10 10 9 6 6 10 15 18 20 23 26 29 32 35 37 38 38 37 36 35 34 35 36 38 40 40 41 41 40 40 40 40 39 38 37 37 35 34 33 32 30 26 23 22 20 21 21 22 23 21 23 26 27 22 19 19 19 19 20 21 25 29 30 28 27 25 23 21 21 20 20 20 21 20 19 18 17 16 15 15 15 14
Wind_Direction
143 164 149 139 136 143 160 153 147 143 142 145 145 147 150 151 150 145 143 149 142 137 138 319 313 343 337 342 352 4 8 359 358 2 5 9 13 13 11 11 12 12 10 10 8 13 23 29 40 49 45 15 351 356 353 336 343 325 275 246 119 139 212 232 235 244 248 251 259 266 279 289 301 315 327 327 337 340 332 332 322 322 347 349 343 343 341 336 332 327 327 330 333 334 334 332 329
163 179 182 151 145 155 164 160 157 154 151 152 152 155 157 160 159 154 156 172 190 189 112 55 353 358 343 336 346 0 6 359 357 359 1 2 3 3 4 6 8 8 9 8 9 19 27 34 44 52 60 60 2 0 348 318 323 256 257 242 197 185 212 238 245 253 260 265 268 275 285 294 307 317 324 328 333 329 327 330 328 326 341 345 342 340 339 334 330 326 326 330 333 334 333 331 334
203 205 209 175 156 162 167 169 169 168 164 163 164 164 166 165 164 171 189 200 203 202 136 57 348 348 338 330 339 354 0 357 354 353 354 354 354 356 359 1 4 6 7 7 13 28 29 37 47 42 39 35 33 0 327 298 288 253 257 238 221 207 213 237 249 252 258 270 280 284 284 295 310 317 322 326 324 325 329 330 332 337 340 339 338 337 336 332 329 326 326 331 334 333 334 339 354
222 216 208 197 175 171 178 178 179 180 176 175 175 173 176 175 181 208 213 210 192 190 237 356 333 332 334 327 333 348 353 351 347 345 345 348 349 351 356 358 0 4 6 8 20 36 28 34 40 27 20 22 19 348 319 294 284 273 274 242 225 216 217 232 248 254 258 265 274 288 292 303 314 319 323 317 318 320 316 322 332 342 340 331 331 334 333 331 328 327 329 332 333 335 345 4 29
226 222 208 210 201 187 189 187 186 189 187 189 184 179 187 192 207 217 212 218 201 213 285 322 312 322 333 325 329 343 346 344 339 334 337 342 345 348 355 355 358 2 3 11 29 35 27 30 26 11 9 15 8 342 320 288 265 261 269 250 235 223 225 236 247 254 262 263 260 282 301 306 315 320 315 305 309 307 300 318 339 346 333 317 323 330 330 329 327 328 330 332 337 350 13 29 46
228 228 216 215 217 207 202 196 192 195 196 199 194 190 199 208 216 210 212 222 226 279 294 298 294 307 327 320 324 340 339 336 332 327 332 337 341 345 350 353 356 360 1 13 30 30 28 27 15 4 4 8 4 352 341 287 240 245 250 247 240 230 234 245 251 252 257 262 258 275 290 291 305 304 290 299 309 311 322 338 345 341 312 305 317 328 329 327 326 329 330 337 355 18 29 37 54
228 228 224 221 224 219 214 205 199 200 200 202 201 200 206 213 215 211 216 223 238 273 283 289 293 307 321 316 319 334 334 331 327 324 331 334 338 343 345 350 353 358 1 10 24 26 22 15 9 8 6 4 358 351 346 322 266 255 252 244 237 234 236 244 255 257 257 263 266 283 290 282 296 294 288 307 316 316 333 343 337 312 292 301 317 327 327 324 326 330 337 357 21 32 39 55 68
229 229 227 225 227 224 220 213 207 206 205 210 214 212 213 215 214 214 218 228 242 265 282 284 294 312 318 314 316 326 330 328 322 321 332 333 334 339 342 347 350 357 1 7 20 22 13 5 8 9 8 6 353 340 332 323 304 277 259 245 235 236 239 240 248 255 259 260 269 290 298 295 300 305 306 314 312 309 318 317 298 282 291 305 322 327 323 322 328 336 356 23 34 52 73 82 85
232 231 229 226 225 224 223 219 215 213 212 219 225 223 221 215 210 212 221 231 245 267 286 284 292 306 309 310 313 319 325 323 317 317 326 329 330 335 340 343 347 357 0 5 16 15 5 5 11 6 5 8 354 340 328 318 314 295 268 250 238 237 243 244 245 252 248 243 257 275 289 291 291 295 290 284 282 290 296 290 283 287 299 315 327 324 320 325 333 351 21 33 67 97 102 100 95
231 231 231 228 226 224 225 224 222 222 221 222 223 222 221 217 213 214 220 227 240 263 281 283 290 298 302 306 308 312 317 316 314 316 318 322 326 329 337 340 345 358 359 2 8 360 360 7 10 3 1 2 353 347 334 320 313 300 273 252 245 245 250 255 259 258 239 231 251 260 268 267 262 267 258 253 261 276 286 285 288 297 309 325 327 319 322 330 345 16 36 76 112 115 112 104 92
231 231 231 229 228 227 227 228 228 228 227 225 221 218 220 222 221 222 226 230 236 253 270 277 286 292 296 301 302 304 307 309 311 315 313 317 324 327 333 337 346 358 356 357 2 354 357 3 3 3 359 355 353 351 343 331 316 299 278 252 249 251 254 262 266 261 244 242 261 262 260 255 264 262 248 246 259 274 284 288 297 306 318 328 323 320 327 336 10 41 80 115 120 117 110 97 85
232 231 231 230 229 229 230 231 232 231 231 228 223 219 221 224 223 226 236 245 251 259 268 274 279 282 288 294 298 299 300 303 306 310 310 313 322 326 330 336 348 355 350 352 358 354 357 1 359 1 358 354 352 350 347 341 327 302 284 257 249 245 236 242 250 252 251 258 266 261 261 271 273 261 249 255 265 278 288 294 303 311 324 327 320 324 332 350 56 80 113 122 122 117 107 94 88
234 233 233 231 230 231 232 233 234 234 233 230 224 223 224 226 226 228 237 248 258 263 270 276 274 275 284 291 294 294 293 297 300 304 307 312 319 324 331 339 348 351 346 348 355 357 0 1 359 359 354 351 350 349 347 344 336 309 287 263 251 242 232 233 238 242 250 264 266 258 265 275 272 265 271 274 273 286 292 297 305 314 326 324 322 329 339 48 90 111 124 126 127 117 103 95 92
236 235 234 233 231 231 232 234 235 235 234 231 226 226 227 228 230 231 237 244 253 260 267 273 271 274 284 291 292 290 290 292 295 300 305 310 316 324 331 339 344 346 345 348 354 0 3 0 357 356 351 350 351 349 347 344 341 319 286 266 254 244 236 231 232 238 246 260 263 254 257 266 270 276 278 273 273 288 291 299 306 318 327 323 326 333 352 107 116 126 127 130 128 111 99 95 91
239 237 236 234 233 232 232 233 235 235 233 232 230 229 228 229 229 234 243 246 251 258 260 264 266 272 282 289 289 286 288 290 292 296 301 307 313 321 327 335 339 343 346 348 353 359 1 359 356 353 351 353 353 350 347 344 343 331 291 267 257 248 242 234 233 238 242 251 257 253 254 261 267 269 266 263 272 285 290 302 309 324 327 323 328 333 130 130 130 130 129 127 115 103 98 92 84
242 240 238 236 234 233 233 234 234 235 234 234 234 232 229 228 228 234 244 246 244 248 255 261 264 271 281 286 285 284 287 288 289 292 298 304 309 316 322 332 337 341 346 348 351 356 357 358 356 354 354 355 353 350 348 346 345 339 304 266 256 252 249 245 245 246 245 248 249 249 254 258 257 255 257 263 275 282 292 303 315 330 323 321 328 303 156 139 137 133 131 121 108 102 91 78 67
243 242 240 238 236 234 234 235 235 235 235 236 237 235 230 227 228 232 239 240 236 238 251 259 263 273 281 282 282 282 284 286 287 289 294 300 305 312 318 329 336 341 347 348 350 353 354 356 357 357 357 356 353 351 350 347 346 342 321 278 256 252 251 252 254 252 249 247 244 244 247 246 242 247 263 271 274 282 295 303 320 329 320 319 321 173 159 142 142 142 135 120 110 101 77 60 45
244 242 241 240 238 236 234 235 235 236 236 237 237 236 232 226 227 231 235 236 236 240 249 257 261 271 277 278 280 281 282 284 285 285 289 294 300 307 314 326 336 341 347 349 349 352 351 351 356 359 358 357 354 351 352 350 347 344 331 304 272 257 251 251 252 250 247 241 238 239 238 235 237 252 268 268 272 281 294 302 316 322 316 315 277 170 162 147 151 151 139 124 116 94 70 52 37
245 244 243 241 239 237 235 234 235 236 237 237 237 236 233 228 227 230 233 235 239 243 245 251 257 266 273 275 276 278 279 281 283 283 284 290 297 306 312 324 335 341 347 349 349 350 348 345 352 358 359 359 356 353 355 353 349 349 341 323 298 268 252 248 249 249 245 238 235 234 233 234 244 264 266 262 269 278 291 294 308 316 310 307 198 175 166 151 159 157 145 134 117 82 73 64 47
245 244 243 242 241 239 237 235 235 236 237 238 237 236 235 231 229 229 232 235 240 244 242 243 252 264 271 271 274 276 276 277 280 280 281 287 296 305 311 323 333 340 348 349 349 350 345 340 348 356 360 1 357 355 358 356 352 355 351 338 319 283 257 246 246 247 245 239 233 230 230 236 253 267 260 260 267 273 280 284 303 308 301 288 184 178 164 149 160 159 151 143 118 82 84 83 64
245 244 243 243 242 241 238 236 235 235 236 237 237 236 235 233 232 232 233 235 238 242 243 242 250 262 268 268 272 275 275 274 276 276 277 284 294 305 311 322 332 337 345 348 348 349 343 338 345 354 1 2 359 357 0 360 358 2 2 351 339 309 271 247 243 243 242 238 232 230 234 247 262 259 252 260 263 266 274 284 302 301 289 238 179 175 160 147 157 159 154 147 125 89 90 84 72
245 245 244 243 242 242 240 238 236 236 236 237 237 236 235 233 233 234 236 237 237 240 243 244 250 258 262 265 269 273 273 271 273 273 274 281 292 304 312 322 330 332 341 347 348 348 341 337 342 353 2 2 359 359 1 3 2 5 11 6 358 342 307 260 246 242 239 239 239 241 247 257 258 248 253 261 256 265 277 290 300 289 267 189 176 172 158 147 157 160 153 150 135 92 88 74 60
246 245 244 243 242 241 241 240 238 237 237 237 237 237 235 233 232 233 235 237 238 240 243 246 250 254 258 262 267 270 270 269 272 272 273 281 290 304 313 322 328 326 335 346 348 345 338 335 342 354 3 1 359 359 0 4 6 6 13 16 10 0 342 302 265 251 245 246 248 251 254 255 248 247 260 255 250 271 280 293 294 272 216 175 174 171 155 149 156 156 151 149 133 93 84 60 48
248 246 244 243 242 241 241 240 239 238 238 237 238 237 236 235 233 233 235 237 238 240 243 246 249 251 254 259 264 266 266 269 272 272 275 282 290 303 314 321 325 322 333 345 347 343 335 331 341 354 3 0 358 359 360 3 8 7 11 19 18 13 5 346 310 271 258 250 246 248 249 247 247 253 253 243 248 269 279 290 279 237 178 171 172 168 153 150 153 152 148 140 119 95 80 50 35
248 247 246 244 243 242 241 240 239 238 238 238 238 238 237 236 236 236 237 238 239 239 242 244 246 247 250 255 260 262 264 267 270 272 276 282 288 301 312 318 322 322 332 343 345 341 332 326 337 352 1 359 358 358 359 2 8 8 8 16 18 15 13 8 359 322 266 234 222 235 248 252 249 244 240 238 250 267 281 281 251 195 165 169 171 165 152 150 151 150 143 131 119 104 80 44 27
247 247 247 246 245 243 241 240 239 239 238 238 238 237 238 237 237 237 237 239 239 239 240 242 244 244 247 251 256 261 264 264 267 271 275 280 285 296 306 313 320 322 330 341 343 338 329 326 335 349 358 358 357 357 358 0 6 8 6 9 12 13 14 13 18 24 50 192 205 227 241 238 233 232 235 245 257 272 279 255 220 166 162 168 169 163 152 148 150 148 138 133 131 106 76 37 28
247 247 246 246 246 244 243 242 240 239 239 238 238 238 237 237 237 237 237 239 240 240 240 241 242 242 244 249 254 261 263 261 264 269 273 278 281 289 298 308 318 322 328 337 341 333 327 330 337 347 355 357 356 356 357 360 5 7 4 4 4 9 13 13 19 21 21 27 191 193 204 213 221 228 237 254 266 272 255 221 189 157 162 168 168 162 151 148 151 145 138 142 130 101 66 37 30
248 247 247 246 246 245 244 243 242 240 240 239 239 238 238 238 238 237 237 238 240 240 240 241 241 241 243 247 253 259 260 258 260 266 271 274 277 282 290 304 316 319 324 334 337 327 324 333 339 345 352 355 355 355 357 0 5 6 4 4 0 359 5 6 7 3 0 351 321 218 199 204 223 241 255 262 264 251 209 193 166 156 162 167 168 161 150 151 152 143 143 144 125 99 58 36 29
248 247 247 246 246 245 244 243 242 241 241 240 239 238 238 238 238 237 237 237 239 240 240 240 241 242 243 246 252 256 256 254 258 263 267 271 274 276 284 301 313 315 320 329 331 321 321 333 340 343 349 354 354 354 357 1 5 6 4 4 1 355 354 357 0 353 343 335 328 265 203 228 248 256 258 244 225 194 178 170 157 157 161 165 167 159 151 153 152 147 147 138 118 88 49 31 29
248 247 246 246 245 245 244 243 243 242 241 241 240 240 238 238 238 238 237 236 238 239 240 240 241 242 243 246 250 252 251 252 257 260 263 268 271 273 280 296 307 310 315 322 321 314 318 330 337 341 347 353 354 354 358 2 6 6 3 4 2 359 355 348 351 349 337 321 289 292 299 292 264 238 197 172 170 165 162 156 154 156 160 164 165 156 153 156 154 150 143 131 112 71 41 27 37
250 248 246 245 244 244 243 243 242 242 242 241 241 241 240 239 238 238 237 236 236 238 239 240 241 241 243 245 248 249 248 252 257 259 261 264 268 270 275 289 300 304 310 316 314 310 316 325 333 340 346 353 354 355 359 3 7 6 3 4 4 2 1 356 356 350 334 292 283 309 321 313 192 157 152 156 159 155 152 150 152 156 159 162 162 155 155 158 153 146 138 127 94 62 37 34 50
251 249 247 246 244 243 242 242 242 241 241 242 241 241 241 240 239 239 238 237 236 236 237 239 240 241 242 244 246 247 247 251 255 256 259 261 263 266 270 282 292 296 303 312 309 307 315 324 332 339 346 355 356 356 1 4 8 8 5 6 5 4 5 7 10 8 1 345 332 352 34 88 125 137 151 154 151 150 149 149 153 157 159 161 158 156 158 158 152 146 139 104 77 58 41 58 62
252 250 248 247 245 243 242 241 241 240 240 240 241 241 241 240 239 239 239 238 237 236 237 238 239 240 242 243 244 245 247 250 252 253 256 258 259 262 266 275 284 288 296 305 305 303 310 321 332 338 346 356 356 356 2 4 8 9 6 6 8 7 8 14 22 28 33 43 53 66 83 101 118 132 147 149 148 150 150 151 155 159 160 159 157 157 159 157 154 150 128 80 74 60 65 81 71
254 252 250 248 246 245 243 242 241 240 239 239 239 240 240 240 239 239 239 238 238 237 236 237 238 240 241 242 243 245 246 247 248 249 252 254 255 258 261 269 276 279 285 297 301 298 302 315 330 337 347 356 355 357 2 4 8 10 9 8 10 11 15 21 29 37 44 53 66 78 92 108 118 126 138 147 149 151 152 154 158 161 161 157 156 157 158 159 158 149 105 80 76 64 86 95 77
258 255 253 250 249 247 245 243 241 240 239 238 238 238 238 239 239 239 238 238 238 237 236 237 238 239 240 241 243 244 245 245 244 246 248 249 252 255 257 263 268 271 275 287 295 292 294 306 325 334 344 354 355 357 2 5 9 11 11 12 12 16 22 29 35 40 45 51 62 81 104 121 127 128 135 145 151 153 154 158 160 162 159 155 155 157 158 160 157 133 94 85 76 74 101 96 73
262 259 256 252 250 248 245 243 242 240 239 238 237 237 237 237 238 238 238 238 238 238 237 236 237 238 239 241 242 244 245 244 242 243 245 247 250 252 253 256 262 265 266 276 287 288 289 297 315 329 339 351 354 358 3 6 11 12 14 16 16 20 26 33 38 43 48 53 62 81 112 133 139 138 137 144 151 155 156 159 161 161 156 154 156 158 157 158 150 125 101 88 81 100 106 87 70
267 263 259 256 252 249 245 242 240 240 239 238 237 237 236 236 237 238 238 237 238 238 238 236 236 237 237 239 240 242 243 243 242 242 243 245 249 250 249 251 257 261 261 266 280 284 284 291 306 321 333 349 353 358 3 7 14 15 16 19 21 23 29 36 42 47 53 58 67 82 106 128 137 137 136 141 149 154 156 157 159 158 154 154 157 158 157 158 150 136 115 96 104 118 103 84 75
273 269 265 261 257 253 249 245 242 239 238 238 237 236 236 236 236 237 237 237 237 237 237 237 236 236 236 236 237 239 241 242 242 242 242 244 247 247 245 248 253 256 256 259 272 280 279 284 299 312 324 345 351 356 4 8 16 17 19 23 26 29 34 39 45 51 57 65 74 86 102 116 124 126 129 137 145 150 152 154 155 154 154 155 158 159 160 160 151 138 116 109 124 121 99 89 84
279 275 272 268 263 259 255 251 246 242 239 237 236 235 234 235 235 235 236 236 236 236 236 236 235 235 235 235 235 237 238 240 240 240 241 242 244 244 242 245 250 251 251 253 264 275 275 279 290 301 314 338 346 353 3 7 16 21 22 26 31 36 39 44 51 59 65 71 78 89 101 110 116 119 124 132 138 143 147 150 151 152 154 155 156 158 158 158 153 146 129 127 131 117 100 96 89
285 280 277 274 271 266 260 255 251 246 241 238 236 234 233 232 233 233 234 235 236 236 235 235 235 235 234 234 234 235 236 239 239 238 238 240 242 242 241 244 246 247 247 249 257 269 271 273 280 290 305 329 339 346 359 6 14 24 27 30 37 41 45 51 59 65 70 74 79 88 98 107 113 117 123 128 132 136 141 145 147 149 151 152 152 154 158 164 172 167 143 135 131 116 107 104 93
292 287 282 278 276 272 266 261 256 252 247 242 238 235 232 231 230 231 232 232 234 235 235 234 233 234 234 234 234 235 236 238 239 237 236 238 240 240 241 242 243 242 244 245 250 261 266 267 271 281 293 314 329 336 351 3 11 24 31 34 40 47 51 58 65 69 73 76 79 86 95 103 110 116 121 125 129 133 136 139 141 143 145 147 151 158 169 177 172 155 141 136 131 121 115 109 98
312 306 297 291 288 286 280 272 264 257 250 243 238 235 232 231 230 229 229 230 231 233 234 233 232 232 233 234 234 234 234 236 239 239 237 238 239 239 240 241 239 237 238 240 245 253 260 263 265 273 283 298 316 326 339 356 7 20 34 37 42 51 57 63 70 74 78 81 83 89 96 102 108 114 118 122 125 128 130 132 134 137 141 147 155 160 159 154 147 143 140 137 132 124 119 113 104
324 319 307 297 292 287 282 275 266 258 249 241 237 234 232 231 231 229 228 228 229 230 232 232 232 231 231 232 233 233 232 233 236 238 237 237 238 238 238 237 235 234 235 237 242 248 252 258 263 269 276 285 302 314 323 343 3 17 33 40 43 53 63 69 76 81 86 89 92 96 100 105 111 115 118 121 124 126 128 130 132 135 139 141 139 129 122 122 127 132 135 135 132 126 122 116 108
323 323 320 311 300 286 277 270 263 256 249 243 239 236 232 231 231 230 228 226 226 228 229 230 230 229 229 230 231 231 231 231 232 233 233 234 234 233 234 233 233 233 234 237 242 245 247 253 259 264 267 272 288 302 308 325 351 10 33 43 44 53 65 76 82 88 95 100 104 106 108 112 116 120 122 124 126 127 127 129 130 133 136 136 131 121 112 110 115 121 127 131 131 128 125 119 111
326 332 336 335 327 317 304 293 281 270 259 248 242 239 235 231 231 231 229 227 225 225 227 228 228 227 226 226 227 228 227 228 229 229 231 233 232 230 230 230 231 232 233 237 242 245 245 247 253 260 265 264 275 290 296 308 332 355 30 45 47 53 63 78 88 94 102 110 116 118 118 119 122 125 128 128 127 127 127 128 131 134 137 138 137 130 120 113 112 116 121 128 131 131 127 121 113
331 337 341 338 333 332 328 319 308 298 284 264 250 243 239 234 230 230 230 229 226 225 225 226 227 226 224 224 224 225 225 225 226 226 228 231 231 230 231 232 232 233 234 236 241 245 244 244 247 254 262 261 264 278 284 292 315 340 22 43 50 57 61 71 88 101 108 117 125 129 129 128 129 130 130 129 128 127 129 132 134 135 136 135 134 131 128 122 117 117 120 127 133 134 131 122 116
332 334 336 336 336 340 338 325 312 304 297 281 261 249 245 241 234 230 229 230 228 226 225 225 226 226 225 224 222 223 224 225 227 227 228 231 231 231 232 234 235 235 235 236 239 243 243 239 239 243 250 253 253 261 270 276 287 316 6 31 47 59 63 65 74 97 117 127 133 138 140 139 138 138 135 133 132 133 134 136 136 134 131 128 126 125 125 124 121 120 122 128 133 135 132 125 121
329 331 333 336 337 340 338 325 310 302 297 286 266 251 247 245 240 233 229 229 229 228 227 226 226 226 226 225 223 222 223 224 225 226 225 227 229 231 232 234 236 237 238 238 240 242 239 232 229 232 239 243 242 245 254 260 259 268 314 356 46 59 62 61 61 71 107 140 149 152 153 151 150 149 147 143 141 142 141 139 137 136 132 128 126 126 125 123 122 122 126 130 134 136 134 129 127
326 327 328 332 334 334 332 325 315 307 300 290 274 255 244 240 239 235 230 229 228 228 228 227 226 226 226 225 224 223 224 223 223 224 222 220 221 225 228 231 236 239 240 239 239 237 232 226 222 224 231 237 236 236 241 244 244 241 250 272 298 46 52 55 54 57 68 130 163 171 173 171 166 163 161 157 154 153 149 145 143 142 140 136 132 131 130 129 127 127 131 135 136 136 132 130 130
322 320 318 324 328 326 326 324 323 326 317 301 288 269 251 243 238 233 230 229 228 228 229 228 227 225 225 225 224 223 222 222 222 223 223 221 219 221 225 230 236 240 238 236 234 230 225 222 221 221 226 233 234 233 235 238 237 231 232 248 254 324 12 3 3 21 37 33 182 185 192 192 186 180 175 171 167 164 157 153 151 150 149 144 139 138 137 135 133 134 138 141 143 140 133 129 132
315 310 309 315 317 317 319 322 330 345 341 315 296 282 263 252 245 238 231 228 227 226 227 227 226 225 223 223 223 222 221 220 220 221 222 221 220 223 228 234 237 237 235 233 230 225 223 222 223 223 225 230 233 233 236 238 236 227 224 234 236 313 333 307 299 299 294 285 259 214 202 204 200 194 189 182 176 171 165 159 157 156 155 152 146 144 145 141 138 139 143 148 151 149 141 132 134
305 302 301 303 304 305 310 319 332 346 347 329 306 289 271 258 251 244 236 229 226 224 224 224 225 224 223 221 221 222 221 219 219 219 220 220 220 222 227 233 235 233 232 230 226 223 222 223 224 226 227 230 233 233 236 240 239 231 222 225 219 209 227 242 255 268 273 273 267 250 228 216 207 201 196 189 182 177 172 165 162 161 161 161 157 153 152 150 146 146 149 154 157 157 152 143 141
295 295 296 297 295 297 304 315 328 337 341 340 331 307 275 259 251 245 240 233 227 224 222 221 221 222 222 220 219 220 220 219 218 218 218 218 219 220 225 231 232 230 229 226 223 223 224 226 228 230 231 233 234 233 235 239 242 237 227 224 223 216 216 221 243 271 282 278 267 252 238 226 212 204 198 191 184 182 179 172 169 169 170 171 169 163 160 158 156 155 156 160 163 163 161 157 156
287 289 293 296 295 296 301 309 317 323 329 337 338 323 284 260 252 247 243 237 229 224 222 220 219 218 218 219 218 218 219 219 218 218 218 218 219 220 224 228 230 228 226 223 223 225 228 230 231 233 234 235 234 233 234 237 242 242 234 227 225 222 217 220 242 276 282 270 260 250 238 229 216 207 200 192 186 185 185 181 178 177 178 179 179 173 168 165 164 163 164 167 170 171 172 173 174
282 284 289 293 293 294 298 302 306 310 315 326 327 317 303 281 260 250 244 238 231 226 224 222 219 217 215 216 217 218 218 219 219 218 218 218 219 220 223 226 228 226 224 223 225 229 232 233 233 234 235 236 235 233 233 236 240 245 242 232 226 223 215 211 228 254 260 254 247 241 234 227 218 210 202 194 190 189 189 187 185 183 184 185 185 182 177 173 172 171 171 174 178 182 184 187 192
275 276 281 284 286 290 296 297 297 301 305 311 313 310 313 316 289 259 246 239 233 229 227 224 221 218 216 214 215 217 217 218 218 218 218 218 219 220 222 225 226 225 225 226 228 231 233 233 234 235 236 236 235 233 234 237 241 247 247 236 228 224 211 201 215 235 244 245 241 235 228 224 218 211 205 198 194 193 193 192 190 189 189 191 192 191 187 183 181 180 181 183 187 191 196 199 202
268 269 271 275 278 285 294 296 295 296 297 300 306 312 320 326 316 295 265 242 233 231 229 226 223 220 218 215 214 216 217 217 217 216 216 217 218 219 221 223 225 227 228 229 229 230 232 233 234 235 236 235 234 234 236 239 242 246 246 240 236 228 211 203 218 232 234 235 235 230 225 222 218 212 208 203 199 198 198 197 195 194 194 196 199 201 199 196 193 193 195 197 198 201 204 207 207
261 261 260 263 269 276 283 290 291 290 290 292 300 311 317 320 321 318 304 266 240 233 230 228 225 223 221 218 216 216 217 217 217 217 216 215 216 217 220 222 224 227 229 230 230 231 232 233 233 235 236 235 234 234 236 240 242 240 239 242 247 239 217 207 220 233 230 226 225 226 223 220 219 214 210 208 205 203 203 202 202 201 201 202 205 208 209 207 206 205 207 210 213 214 215 216 216